Location: Castle
(40.7167°S, 175.9500°E)
Time: 02:52:36
(UTC+00:00)

Cosmos 1378 Rocket - Pass Details

Date: 04 August 2024
Orbit: 596 x 623 km, 82.5° (Epoch: 07 September)

Event Time Altitude Azimuth Distance (km) Brightness Sun altitude
Rises 18:20:51 0° 330° (NNW) 2,848 6.8 -11.2°
Reaches altitude 10° 18:23:14 10° 319° (NW) 1,958 5.9 -10.8°
Maximum altitude 18:27:06 31° 256° (WSW) 1,087 4.3 -10.1°
Drops below altitude 10° 18:31:03 10° 193° (SSW) 1,998 5.9 -9.3°
Sets 18:33:31 0° 182° (S) 2,917 6.8 -8.9°
